K5AGY Weather Reports


Display with metric or nautical units.
time (UTC)temp
F
wind
direction
speed
MPH
gust
MPH
rain 1hr
in
rain 24hr
in
rain mn
in
humidity
%
barometer
mb
20260902153030 88 233 7.0 12.0 0.00 0.00 0.00 64 1015.0
20260902151545 87 210 8.0 13.0 0.00 0.00 0.00 66 1015.0
20260902150014 86 192 8.0 13.0 0.00 0.00 0.00 69 1015.1
20260902144550 84 187 5.0 10.0 0.00 0.00 0.00 72 1015.1
20260902143015 83 206 5.0 9.0 0.00 0.00 0.00 76 1015.1
20260902141601 82 229 4.0 8.0 0.00 0.00 0.00 78 1015.2
20260902140013 81 229 3.0 7.0 0.00 0.00 0.00 80 1015.2
20260902134543 80 206 2.0 5.0 0.00 0.00 0.00 83 1015.1
20260902133013 78 199 1.0 4.0 0.00 0.00 0.00 85 1015.0
20260902131552 77 196 0.0 2.0 0.00 0.00 0.00 86 1014.9
20260902130014 76 219 0.0 0.0 0.00 0.00 0.00 85 1014.7
20260902124602 75 219 0.0 0.0 0.00 0.00 0.00 85 1014.6
20260902123017 75 219 0.0 0.0 0.00 0.00 0.00 85 1014.3
20260902121553 74 219 0.0 0.0 0.00 0.00 0.00 85 1014.3
20260902120023 75 219 0.0 0.0 0.00 0.00 0.00 85 1014.3
20260902114552 75 219 0.0 0.0 0.00 0.00 0.00 85 1014.2
20260902113023 75 219 0.0 0.0 0.00 0.00 0.00 84 1014.1
20260902111559 75 219 0.0 0.0 0.00 0.00 0.00 84 1014.0
20260902110030 75 219 0.0 0.0 0.00 0.00 0.00 84 1013.9
20260902104601 76 219 0.0 0.0 0.00 0.00 0.00 84 1013.9
20260902103034 76 219 0.0 0.0 0.00 0.00 0.00 84 1014.0
20260902101505 76 219 0.0 0.0 0.00 0.00 0.00 83 1013.8
20260902100036 76 219 0.0 0.0 0.00 0.00 0.00 84 1013.7
20260902094505 77 219 0.0 1.0 0.00 0.00 0.00 83 1013.7
20260902093041 77 219 0.0 1.0 0.00 0.00 0.00 83 1013.7
20260902091518 77 222 0.0 2.0 0.00 0.00 0.00 83 1013.8
20260902090045 77 208 1.0 2.0 0.00 0.00 0.00 82 1013.8
20260902084517 77 204 1.0 3.0 0.00 0.00 0.00 82 1013.7
20260902083053 78 204 1.0 2.0 0.00 0.00 0.00 81 1013.8
20260902081518 78 195 1.0 3.0 0.00 0.00 0.00 81 1013.7
20260902080051 78 160 0.0 2.0 0.00 0.00 0.00 80 1013.8
20260902074520 78 159 0.0 3.0 0.00 0.00 0.00 80 1013.9
20260902073056 78 165 0.0 2.0 0.00 0.00 0.00 79 1014.1
20260902071524 79 190 0.0 3.0 0.00 0.00 0.00 79 1014.1
20260902070159 79 200 2.0 4.0 0.00 0.00 0.00 79 1014.0
20260902064539 79 226 2.0 6.0 0.00 0.00 0.00 77 1014.0
20260902063002 79 191 2.0 6.0 0.00 0.00 0.00 77 1014.1
20260902061541 79 200 1.0 3.0 0.00 0.00 0.00 75 1014.0
20260902060007 79 165 0.0 3.0 0.00 0.00 0.00 74 1014.1
20260902054542 79 150 0.0 2.0 0.00 0.00 0.00 73 1014.0
20260902053012 80 155 1.0 2.0 0.00 0.00 0.00 72 1013.9
20260902051546 80 104 0.0 4.0 0.00 0.00 0.00 72 1013.8
20260902050015 80 202 2.0 5.0 0.00 0.00 0.00 73 1013.8
20260902044548 80 120 0.0 2.0 0.00 0.00 0.00 73 1014.0
20260902043021 80 127 0.0 1.0 0.00 0.00 0.00 72 1014.0
20260902041601 81 134 0.0 1.0 0.00 0.00 0.00 71 1014.0
20260902040027 81 142 0.0 0.0 0.00 0.00 0.00 70 1013.9
20260902034605 81 153 0.0 1.0 0.00 0.00 0.00 69 1013.7
20260902033033 82 119 0.0 2.0 0.00 0.00 0.00 69 1013.4
20260902031501 82 106 1.0 4.0 0.00 0.00 0.00 68 1013.4
20260902030036 83 155 0.0 3.0 0.00 0.00 0.00 67 1013.2
20260902024510 84 113 1.0 4.0 0.00 0.00 0.00 66 1013.0
20260902023042 84 117 0.0 2.0 0.00 0.00 0.00 65 1012.6
20260902021515 85 160 2.0 8.0 0.00 0.00 0.00 63 1012.3
20260902020053 86 109 3.0 11.0 0.00 0.00 0.00 62 1012.2
20260902014518 87 148 4.0 9.0 0.00 0.00 0.00 60 1012.3
20260902013053 89 175 4.0 13.0 0.00 0.00 0.00 56 1012.1
20260902011520 90 101 4.0 9.0 0.00 0.00 0.00 52 1011.9
20260902010052 91 79 1.0 4.0 0.00 0.00 0.00 52 1011.6
20260902004525 91 59 3.0 7.0 0.00 0.00 0.00 51 1011.5
20260902003059 90 64 3.0 7.0 0.00 0.00 0.00 53 1011.5
20260902001531 88 65 0.0 2.0 0.00 0.00 0.00 60 1011.6
20260902000006 86 62 2.0 4.0 0.00 0.00 0.00 63 1011.8
20260901234534 85 8 1.0 2.0 0.00 0.00 0.00 67 1011.5
20260901233002 84 322 2.0 5.0 0.00 0.00 0.00 68 1011.4
20260901231542 85 309 4.0 13.0 0.00 0.00 0.00 64 1011.4
20260901230009 91 345 9.0 15.0 0.00 0.00 0.00 47 1011.1
20260901224539 97 42 2.0 7.0 0.00 0.00 0.00 38 1011.0
20260901223010 98 98 5.0 13.0 0.00 0.00 0.00 37 1011.1
20260901221544 101 58 3.0 9.0 0.00 0.00 0.00 32 1011.0
20260901220015 100 68 0.0 5.0 0.00 0.00 0.00 33 1011.2
20260901214541 100 97 3.0 9.0 0.00 0.00 0.00 34 1011.2
20260901213010 100 51 4.0 9.0 0.00 0.00 0.00 34 1011.2
20260901211542 100 101 5.0 10.0 0.00 0.00 0.00 35 1011.3
20260901210023 103 62 1.0 7.0 0.00 0.00 0.00 29 1011.4
20260901204544 102 201 2.0 5.0 0.00 0.00 0.00 31 1011.8
20260901203021 102 353 2.0 6.0 0.00 0.00 0.00 31 1012.0
20260901201547 101 103 4.0 10.0 0.00 0.00 0.00 33 1012.3
20260901200012 100 117 2.0 7.0 0.00 0.00 0.00 35 1012.6
20260901194547 99 27 3.0 5.0 0.00 0.00 0.00 35 1012.7
20260901193016 99 109 4.0 9.0 0.00 0.00 0.00 36 1012.9
20260901191544 99 95 1.0 8.0 0.00 0.00 0.00 37 1013.2
20260901190030 99 123 2.0 9.0 0.00 0.00 0.00 35 1013.3
20260901184546 101 295 4.0 9.0 0.00 0.00 0.00 35 1013.6
20260901183025 100 282 0.0 4.0 0.00 0.00 0.00 38 1013.9
20260901181546 99 317 0.0 8.0 0.00 0.00 0.00 39 1014.1
20260901180014 97 225 3.0 8.0 0.00 0.00 0.00 42 1014.5
20260901174601 97 219 3.0 7.0 0.00 0.00 0.00 42 1014.9
20260901173018 97 25 1.0 3.0 0.00 0.00 0.00 42 1015.2
20260901171553 95 114 1.0 5.0 0.00 0.00 0.00 46 1015.3
20260901170018 93 34 0.0 5.0 0.00 0.00 0.00 48 1015.5
20260901164551 92 57 0.0 3.0 0.00 0.00 0.00 51 1015.6
20260901163026 91 181 1.0 4.0 0.00 0.00 0.00 52 1015.7
20260901161608 92 318 1.0 4.0 0.00 0.00 0.00 53 1015.8
20260901160023 91 289 2.0 5.0 0.00 0.00 0.00 53 1015.8
20260901154553 90 257 2.0 5.0 0.00 0.00 0.00 56 1015.7